User: anonymous   Login
Location: Township of South Roscoe
(37.9570°N, 100.1180°W)
Time: 18:53:55
(UTC+00:00)
Language:

Cosmos 2360 Rocket - Orbit

View from above orbital plane
View from above orbital plane
View from above satellite
View from above satellite

Ground track
Ground track

The orbit data is extracted from the following two-line orbital elements,

1 25407U 98045B   22022.55155432  .00000217  00000-0  13435-3 0  9991
2 25407  71.0120 110.0130 0007194 181.1708 178.9400 14.15850349213751
Epoch (UTC): 22 January 2022 13:14:14
Eccentricity: 0.0007194
inclination: 71.0120°
perigee height: 834 km
apogee height: 844 km
right ascension of ascending node: 110.0130°
argument of perigee: 181.1708°
revolutions per day: 14.15850349
mean anomaly at epoch: 178.9400°
orbit number at epoch: 21375

The dashed part of the orbit path shows where the satellite is in the earth's shadow,  

DLR